Погода в Говернадор-Валадарисе

Бразилия     18°50′53″S   41°57′01″W
темп.,
°C
ветер,
м/с
пор.,
м/с
влажн.,
%
обл.,
%
осадки,
мм/ч
давл.,
гПа
погр.,
м
28 сентября, вт
вт2800:00+22всв247950 0.0 1019264
03:00+21в2479100 0.1 1018596
06:00+22в1177100 0.1 1019294
09:00+24ссв126595 0.2 1020880
12:00+28св334895 0.1 10181746
15:00+31вюв23351 0.1 10142031
18:00+26вюв36481 0.0 1014116
21:00+24в25582 0.0 1016113
29 сентября, ср
ср2900:00+22св25720 0.0 1016192
03:00+20всв11814 0.0 101518
06:00+19в11841 0.0 101761
09:00+26всв34531 0.0 10171094
12:00+32св33330 0.0 10141728
15:00+34всв22260 0.0 10092180
18:00+29в22344 0.0 101016
21:00+27св243887 0.0 1012132
30 сентября, чт
чт3000:00+24вюв115316 0.0 101318
03:00+23св2265100 0.1 101174
06:00+22в117322 0.1 101346
09:00+28всв23495 0.1 10141023
12:00+34всв32323 0.0 10111969
15:00+36вюв33260 0.0 10072643
18:00+30вюв5114116 0.1 1009570
21:00+25ююв116537 0.2 101423
1 октября, пт
пт100:00+23вюв23723 0.0 1014108
03:00+21вюв11800 0.0 101243
06:00+21в01820 0.0 101466
09:00+28всв33520 0.0 10151050
12:00+34св33320 0.0 10111909
15:00+36всв32260 0.0 10072440
18:00+31в38321 0.0 1007162
21:00+27всв495269 0.0 1011515
2 октября, сб
сб200:00+24вюв1269100 0.0 101384
03:00+22в247669 0.0 1012215
06:00+22юв11795 0.0 101490
09:00+28всв34491 0.0 10141069
12:00+35св34290 0.0 10101908
15:00+37в33220 0.0 10062804
18:00+33всв510272 0.0 1007372
21:00+29в510380 0.0 1010553